NOAA 16 DEB, 41658

Orbit data source: Space-Track

NOAA 16 DEB, 41658 is space debris in SSO originally from a launch on Thu, 21 Sep 2000 UTC launched from the Air Force Western Test Range (AFWTR). Debris objects in space refer to the collection of defunct objects orbiting the Earth. Examples of debris include non-operational satellites, rocket bodies, and fragments generated from explosions, collisions, or faulty payload assembly.

Loading next visibility...
Identifier
41658, 2000-055NX
Orbit
SSO
Country
Flag of USUS
Related business
Manufacturer
Unknown
Mission
Spacecraft
Bus & Motor
Unknown
Mass
Unknown
Launch date (UTC)
2000-09-21 (25 years ago)
Launch vehicle
Unknown
Launch site
Air Force Western Test Range (AFWTR)
Object type
Payload
Rocket body
Debris
Shape & HBR
Unknown shape, 0.1 m
Radar Cross Section
Small (<0.1 m²)

Expand to show TLE details & history
Last TLE update: 3 days ago

TLE from 3 days ago
0 NOAA 16 DEB
1 41658U 00055NX  26034.76444055  .00080240  00000-0  72638-2 0  9996
2 41658  98.8633 222.0281 0010423  24.0210 336.1491 14.94958970 92441
Epoch: 2026-02-03T18:20Z
TLE epoch observation values (Epoch: 2026-02-03T18:20:47.663Z)
Latitude
-0.00005°
Longitude
172.88882°
Altitude
578.876 km
Speed
7.575 km/s
True Right ascension
14h 48m 06s
True Declination
0° 00' 00"
Sunlit
Object was in daylight at epoch
Visualization orbit readout
Latitude
Unknown
Longitude
Unknown
Altitude
Unknown
Speed
Unknown
Apparent Right ascension
Unknown
Apparent Declination
Unknown
Sunlit
N/A
Visualization observer readout
Local Sidereal Time
09:32:50
Azimuth
Unknown
Elevation
Unknown
Doppler factor
Unknown
Orbital elements
Apogee altitude
586.819 km
Perigee altitude
572.315 km
Semi-major axis
6,957.704 km
Eccentricity
0.00104
Inclination
98.8633°
RAAN
222.0281°
Arg. of periapsis
24.021°
True anomaly
336.10075°
Mean anomaly
336.1491°
Eccentric anomaly
336.12493°
Mean motion
3.73976 °/min
Orbital period
96.26 mins
BSTAR
0.0072638
Loading maneuver chart data...
Computing Atmospheric mass density...
Loading historical data...
Loading historical data...
Loading historical data...
Loading historical data...
Loading historical data...
Loading historical data...
Loading historical data...

Documentation

Showing up to 5 results
|